User: anonymous   Login
Location: Unspecified
(0.0000°N, 0.0000°E)
Time: 02:58:23
(UTC+00:00)
Language:

KUIPER-00048 - Orbit

View from above orbital plane
View from above orbital plane
View from above satellite
View from above satellite

Ground track
Ground track

The orbit is defined by the following mean orbital elements,

1 64508U          26145.22800031 +.00000000 +00000-0 +88031-4 0 00004
2 64508  51.8978 237.1212 0000289 110.4808 249.6186 14.79935115    03
Epoch (UTC): 25 May 2026 05:28:19
Eccentricity: 0.0000289
inclination: 51.8978°
perigee height: 629 km
apogee height: 630 km
right ascension of ascending node: 237.1212°
argument of perigee: 110.4808°
revolutions per day: 14.79935115
mean anomaly at epoch: 249.6186°

The dashed part of the orbit path shows where the satellite is in the earth's shadow,  

DLR